DMSP 5D-2 F13 DEB

Satellite information

Favourite Embed

Satellite Type and Status

DEBRISIN ORBIT

Key statistics

Satellite DMSP 5D-2 F13 DEB at a glance.

Uptime

11118

Days in orbit

Revolutions

≈ 14.3

Per day

Orbit

SSO

Sun Synchronous Orbit

Inclination

98.9

Latest

Satellite identification and parameters

Extended collection of information and parameters for DMSP 5D-2 F13 DEB.

Object identification

Identified? True

Debris? True

Object name: DMSP 5D-2 F13 DEB

International designator: 1995-015BB

Object number (NORAD): 40449

Object ID (CCSDS): 40449

Country: UNITED STATES OF AMERICA (US)

Current information (Y/N): Y

RCS size: SMALL

Orbital parameters

Period: 100.697 minutes

Inclination: 98.9286 deg

SMA: 7169.744 km

Apoapsis: 809.909 km

Periapsis: 773.309 km

RAAN: 244.8724 deg

Eccentricy: 0.00255243

Argument of periapsis: 33.8614 deg

Mean anomaly: 326.4191 deg

Mean motion: 14.30037025 rev/day

Mean motion (dot): 0.00006119 rev/day2

B* drag term: 0.0023780241 1/REarth

Two-line elements (TLE)

Creation date: Aug. 30, 2025, 3:38 a.m.

Reference frame: TEME

Reference center: EARTH

Epoch: Aug. 29, 2025, 5:32 p.m. UTC

TLE line 0: 0 DMSP 5D-2 F13 DEB

TLE line 1: 1 40449U 95015BB 25241.73079634 .00006119 00000-0 23780-2 0 9993

TLE line 2: 2 40449 98.9286 244.8724 0025524 33.8614 326.4191 14.30037025541886

Live tracking on map

Real-time ground track for satellite DMSP 5D-2 F13 DEB.

In-orbit conjunctions

A list of the most updated potential collisions computed for object DMSP 5D-2 F13 DEB.

Target Orbit TCA Probability of collision Miss distance Type
COSMOS 990 LEO 2025-04-11 01:26:28 0.0004159967 456.0 (m) PAYLOAD
OV1-13 HEO 2025-03-31 20:35:26 0.0003173111 249.0 (m) PAYLOAD
FALCONSAT SSO 2025-01-13 13:44:24 0.0003746527 751.0 (m) PAYLOAD
THOR ABLESTAR DEB LEO 2025-01-10 11:02:14 0.0001114712 125.0 (m) DEBRIS

Associated space launch

Military meteorological satellite

DMSP 5D-2 F13 DEB was lifted into orbit during the mission ‘Atlas E | DMSP-5D2 F13’, on board a Atlas E space rocket.

The launch took place on March 24, 1995, 2:05 p.m. from Space Launch Complex 3W.

For more information about the launch, click the button.

Launch to space Atlas E | DMSP-5D2 F13
Atlas E | DMSP-5D2 F13

Agency: N/A

Status: Launch Successful

Launch date: March 24, 1995, 2:05 p.m. UTC

Rocket: Atlas E

Launch pad: Space Launch Complex 3W

Location: Vandenberg SFB, CA, USA

...

Latest news about this satellite

There are no fresh news available about this satellite. Check back as we update our databases every day.


Newsletter sign-up

Weekly statistics, charts and insights to help you stay on top of the space industry.